Regional Weather Roundup
Issued by NWS Pendleton, OR

Home | Current Version | Previous Version | Text Only | Print | Product List | Glossary On
Versions: 1 2 3 4 5 6 7 8 9 10 11 12 13 14 15 16 17 18 19 20 21 22 23 24 25 26 27 28 29 30 31 32 33 34 35 36 37 38 39 40 41 42 43 44 45 46 47 48 49 50
524
ASUS46 KPDT 202125
RWRPDT
PENDLETON REGIONAL WEATHER ROUNDUP
NATIONAL WEATHER SERVICE PENDLETON OREGON
100 PM PST FRI JAN 20 2017

NOTE: FAIR INDICATES FEW OR NO CLOUDS BELOW 12,000 FEET WITH NO
SIGNIFICANT WEATHER AND/OR OBSTRUCTIONS TO VISIBILITY.

# INDICATES UNOFFICIAL STATION AND DATA

WAZ520-202210-
EAST SLOPES OF WASHINGTON CASCADES

CITY            SKY/WX      TMP DP  RH  WIND    PRES   REMARKS
#CLE ELUM HS    N/A         36  31  82  CALM    29.20F
#CLE ELUM LAKE  N/A         33  31  92  CALM    29.23F
#GLENWOOD       N/A         34  33  96  N1      29.19F
#NELSON 3SW     N/A         31  30  96  CALM    29.44F
#NILE           N/A         32  30  92  NE1     28.51F
#RONALD 2NW     N/A         29  N/A N/A E1      29.08F
#TEANAWAY 4NE   N/A         34  32  92  CALM    N/A
#TROUT LAKE 1NE N/A         34  33  96  CALM    29.18F
#TROUT LAKE 1E  N/A         34  33  96  CALM    29.15F
$$

WAZ521-202210-
SIMCOE HIGHLANDS

CITY            SKY/WX      TMP DP  RH  WIND    PRES   REMARKS
#BICKLETON HS   N/A         31  31  100 N8      28.83F
#CENTERVILLE 1SWN/A         34  31  89  E15     29.17F WCI 24
#GOLDENDALE 1NE N/A         37  29  72  N9      N/A
#GOLDENDALE 4W  N/A         37  20  50  E13     29.18F WCI 29
#GOODNOE HILLS  N/A         42  31  65  E6      N/A
#LYLE 6NE       N/A         35  33  92  N1      29.15F
#PITT 4SE       N/A         32  31  96  E7      29.20F
$$

WAZ026-202210-
KITTITAS VALLEY

CITY            SKY/WX      TMP DP  RH  WIND    PRES   REMARKS
ELLENSBURG AP   LGT SNOW    36  30  79  N3      29.20F
#ELLENSBURG CWU N/A         35  32  89  CALM    29.21F
#ELLENSBURG 3NE N/A         32  31  96  CALM    27.34S
#KITTITAS 4N    N/A         34  31  89  W2      29.26F
#KITTITAS 3S    N/A         32  31  96  CALM    29.25F
#THORP 6N       N/A         32  31  96  CALM    29.28F
$$

WAZ027-202210-
YAKIMA VALLEY

CITY            SKY/WX      TMP DP  RH  WIND    PRES   REMARKS
SUNNYSIDE AP    LGT SNOW    N/A N/A N/A CALM    29.23F
YAKIMA AIRPORT  CLOUDY      36  32  85  E3      29.22F FOG
YAKIMA-VAGABOND LGT RAIN    37  32  82  E8      29.18F
#DONALD 2NE     N/A         34  21  58  W3      28.08F
#MABTON         N/A         29  28  96  CALM    29.24F
#NACHES 2SW     N/A         38  35  89  CALM    29.21F
#TERRACE HTS    N/A         34  33  96  CALM    29.24F
#TOPPENISH      N/A         28  27  96  CALM    29.20F
#WEST VALLEY    N/A         38  34  85  CALM    29.25F
#W YAKIMA       N/A         33  32  96  CALM    29.26F
#WHITE SWAN 5E  N/A         28  27  96  CALM    29.29F
#WILEY CITY 3W  N/A         35  30  82  CALM    29.18F
$$

WAZ028-202210-
LOWER COLUMBIA BASIN...WASHINGTON

CITY            SKY/WX      TMP DP  RH  WIND    PRES   REMARKS
HANFORD         CLOUDY      37  33  85  W9      29.24F
PASCO           CLOUDY      33  33  100 CALM    29.26F FOG
PROSSER AWOS    N/A         30  30  100 CALM    29.27F
RICHLAND AWOS   MOCLDY      37  33  85  CALM    29.25F
#BENTON CITY    N/A         30  28  92  W1      29.17F
#CONNELL 5N     N/A         37  33  85  NE3     29.26S
#CONNELL 5NW    N/A         37  33  85  E5      29.23F
#ELTOPIA 6NW    N/A         34  34  100 CALM    28.22F
#KAHLOTUS       N/A         39  33  79  S9      29.25F
#KENNEWICK 3S   N/A         34  33  96  CALM    29.27F
#PATERSON       N/A         39  33  79  E5      29.20F
#SAGEMOOR 2W    N/A         33  30  89  N5      29.10F
#TOUCHET 2S     N/A         31  30  96  N2      29.23F
#WEST PASCO     N/A         36  34  92  NW1     29.17F
$$

WAZ029-202210-
FOOTHILLS OF THE BLUES...WASHINGTON

CITY            SKY/WX      TMP DP  RH  WIND    PRES   REMARKS
WALLA WALLA AP  CLOUDY      38  30  73  N13     29.20F WCI 30
#CLYDE 6NW      N/A         39  32  76  CALM    29.25F
#DAYTON SCHOOL  N/A         45  27  49  NW2     29.26S
#LOWDEN 2SE     N/A         29  28  96  CALM    29.20F
#PLEASANT VIEW 1N/A         37  32  82  E1      29.29F
#PRESCOTT       N/A         36  32  85  CALM    29.25F
#WHITMAN COLLEGEN/A         40  33  76  SW3     29.27F
#WAITSBURG 5S   N/A         39  32  76  N5      29.31F
#WAITSBURG 8N   N/A         42  N/A N/A N3      29.06F
#WALLA WALLA 5E N/A         43  33  67  N9      N/A
#WHITMAN MISSIONN/A         30  28  92  CALM    29.26F
$$

WAZ030-202210-
BLUE MOUNTAINS...WASHINGTON

CITY            SKY/WX      TMP DP  RH  WIND    PRES   REMARKS
#DIXIE 5SE      N/A         43  27  53  E35G60  29.03F WCI 32
#SKI BLUEWOOD   N/A         37  30  75  SW6     29.16F
$$

ORZ009-041-WAZ024-202210-
COLUMBIA RIVER GORGE

CITY            SKY/WX      TMP DP  RH  WIND    PRES   REMARKS
HOOD RIVER AP   RAIN        34  32  92  NW5     29.19F
THE DALLES AP   LGT SNOW    33  33  100 CALM    29.20F VSB 1/2
#ARLINGTON AIRPON/A         38  33  82  E14     29.21F WCI 30
#ARLINGTON HS   N/A         41  31  67  E5      29.08F
#CELILO DOT     N/A         34  31  89  SW3     N/A
#LYLE           N/A         34  33  96  CALM    29.22F
#MOSIER 1S      N/A         33  32  96  CALM    29.17F
#MURDOCK        N/A         33  31  92  W2      29.17F
#RUFUS DOT      N/A         35  31  85  S8      N/A
#SMITHVILLE     N/A         34  32  92  N2      29.15F

$$

ORZ510-202210-
NORTH CENTRAL OREGON

CITY            SKY/WX      TMP DP  RH  WIND    PRES   REMARKS
#ANTELOPE       N/A         39  32  76  CALM    28.99F
#CHENOWITH 1W   N/A         31  31  100 E3      N/A
#COW CYN RST AREN/A         37  N/A N/A NE7     N/A
#DUFUR 9E       N/A         32  30  92  E12     29.21F WCI 23
#GRASS VALLEY 1SN/A         32  30  92  E6      29.10F
#KENT DOT       N/A         36  26  67  N7      N/A
#MAUPIN SCHOOL  N/A         35  33  92  CALM    29.21F
#SHANIKO 5WSW   N/A         34  28  78  N15     N/A    WCI 24
#SHANIKO 4NW    N/A         34  30  85  SE16    29.06F WCI 24
#TYGH VALLEY 2NEN/A         35  32  89  CALM    29.17F
#WAPANITIA AIRPON/A         34  32  92  CALM    29.19F
#WASCO DOT      N/A         36  30  79  SE8     N/A
#WASCO 5NE      N/A         32  29  89  N6      29.20F
$$

ORZ511-202210-
CENTRAL OREGON

CITY            SKY/WX      TMP DP  RH  WIND    PRES   REMARKS
BEND AIRPORT    MOCLDY      39  30  70  S7      29.06F
MADRAS AIRPORT  CLOUDY      34  34  100 NW3     29.10F
PRINEVILLE AP   CLOUDY      39  30  70  SE15    29.07F WCI 31
REDMOND AIRPORT CLOUDY      40  28  62  SE15    29.06F WCI 32
#ASHWOOD SCHOOL N/A         43  32  65  E6      29.10F
#BEND 1SW       N/A         37  32  82  W2      N/A
#BEND-AWBREY    N/A         38  33  82  SW3     29.10F
#BEND-KIM LN    N/A         41  32  70  S7      29.03F
#CULVER         N/A         41  32  70  S6      29.03F
#CULVER 8W      N/A         38  31  76  NW1     29.18F
#LAKE BILLY CHINN/A         35  N/A N/A N2      29.21F
#MADRAS 4S      N/A         42   4  20  S18     29.20F WCI 34
#POWELL BUTTE   N/A         39  29  67  S15     29.13F WCI 31
#PRINEVILLE 3N  N/A         39  32  76  E12     29.11F WCI 32
#WARM SPRINGS   N/A         36  33  89  CALM    29.10F

$$


ORZ509-202210-
EAST SLOPES OF OREGON CASCADES

CITY            SKY/WX      TMP DP  RH  WIND    PRES   REMARKS
SISTERS AWOS    N/A         39  32  76  CALM    29.10F
#BLUE BOX PASS  N/A         31  N/A N/A CALM    N/A
#CAMP SHERMAN   N/A         35  33  92  CALM    29.18F
#LA PINE 4NW    N/A         37  27  67  S1      29.13F
#LAVA BUTTE DOT N/A         35  24  64  S6      N/A
#SISTERS ODOT   N/A         40  N/A N/A S2      N/A
#SISTERS 3N     N/A         39  28  64  NW3     29.14S
#SUNRIVER       N/A         36  31  82  S2      29.11F
#TUMALO 3W      N/A         40  30  67  S7      28.97F
#WANOGA BUTTE D N/A         27  27  100 CALM    N/A

$$

ORZ044-202210-
LOWER COLUMBIA BASIN...OREGON

CITY            SKY/WX      TMP DP  RH  WIND    PRES   REMARKS
HERMISTON       CLOUDY      36  33  89  E3      29.16F FOG
#BOARDMAN SCHOOLN/A         37  33  85  N12     29.20F WCI 29
#ECHO 8SW       N/A         34  34  100 W6      29.20F
#I-84 EX 198 DOTN/A         45  32  60  N10     N/A
#UMATILLA       N/A         40  31  70  CALM    29.14F
$$

ORZ507-202210-
NORTHERN FOOTHILLS OF THE BLUES

CITY            SKY/WX      TMP DP  RH  WIND    PRES   REMARKS
PENDLETON AIRPT CLOUDY      44  31  60  E13     29.14F WCI 38
#ADAMS 3WNW     N/A         44  31  60  E7      29.18F
#ATHENA         N/A         46  31  56  SE1     29.19F
#CAYUSE         N/A         46  31  56  E38G53  29.09F WCI 36
#HELIX SCHOOL   N/A         41  33  73  N12     29.21F WCI 34
#HELIX 3N       N/A         41  31  67  N16G25  29.19F WCI 33
#HOLDMAN 5SE    N/A         43  33  67  E7      29.18F
#HOLDMAN 6E     N/A         41  33  73  E1      29.00F
#M-F GROVE ELEM N/A         34  26  72  N2      29.19F
#PENDLETON DNTN N/A         48  28  46  E3      29.18F
#PDT AQUATIC CTRN/A         47  30  51  E6      29.19F
#PDT SUNRIDGE   N/A         47  32  56  E7      29.17F
#PENDLETON 7NW  N/A         42  32  67  E7      32.00S
#PILOT ROCK     N/A         49  31  50  S7      29.16F
#TUTUILLA       N/A         46  31  56  CALM    29.15F
#WESTON SCHOOL  N/A         45  24  43  S18G30  29.08F WCI 37

$$

ORZ508-202210-
SOUTHERN FOOTHILLS OF THE BLUES

CITY            SKY/WX      TMP DP  RH  WIND    PRES   REMARKS
#AJAX           N/A         31  23  72  N10     27.17S
#CONDON SCHOOL  N/A         40  33  76  SE12    29.13F WCI 33
#CONDON 5W      N/A         37  30  75  E20     29.06F WCI 27
#FOSSIL SCHOOL  N/A         42  32  67  SE7     29.11F
#HEPPNER EOC    N/A         44  32  62  SE10G35 29.05F
#HEPPNER 4NE    N/A         41  31  67  SE9     29.13F
#LEXINGTON 2SE  N/A         35  29  78  NW5     29.13S
#MIKKALO        N/A         33  28  82  E9      29.29F
#OLEX 4N        N/A         32  31  96  E8      29.18F
#RUGGS 5NE      N/A         41  31  67  N10     29.23F
#RUGGS 2SW      N/A         41  33  73  S18G30  29.15F WCI 32

$$

ORZ502-503-202210-
BLUE MOUNTAINS

CITY            SKY/WX      TMP DP  RH  WIND    PRES   REMARKS
MEACHAM         MOCLDY      36  24  61  CALM    29.14F
#BATTLE MTN DOT N/A         35  22  59  S8      N/A
#GREENHORN 9SW  N/A         33  28  82  E8      25.46F
#HEPPNER 15SE   N/A         36  30  79  E5      N/A
#LADD CYN SMT   N/A         N/A N/A N/A SE15    N/A
#LADD CREEK ODOTN/A         38  26  62  SW16    N/A    WCI 29
#LONG CREEK HS  N/A         34  34  100 SE9     N/A
#N POWDER DOT   N/A         34  27  75  S23     N/A    WCI 22
#PIKES PEAK     N/A         38  24  57  W39G60  27.99S WCI 24
#TOLLGATE       N/A         28  26  92  W8      29.14F
#TROY SCHOOL    N/A         37  33  85  CALM    29.17F
#UKIAH          N/A         40  30  67  E1      29.13F
#WESTON 4E      N/A         37  28  70  SE17G44 29.16F WCI 27
$$

ORZ505-202210-
JOHN DAY BASIN

CITY            SKY/WX      TMP DP  RH  WIND    PRES   REMARKS
JOHN DAY        LGT SNOW    35  32  89  E6      29.17F
#ANTELOPE 9ESE  N/A         46  34  63  NW1     N/A
#DAYVILLE SCHOOLN/A         40  28  62  SE9     29.17F
#MITCHELL       N/A         40  34  79  SE8     29.32F
#MITCHELL 8NW   N/A         38  31  76  CALM    28.95F
#MONUMENT HS    N/A         40  30  67  S8      29.15F
#MT. VERNON 5SE N/A         32  29  89  E6      29.10F
#SPRAY SCHOOL   N/A         42  N/A N/A CALM    N/A
$$

ORZ506-202210-
OCHOCO AND JOHN DAY HIGHLANDS

CITY            SKY/WX      TMP DP  RH  WIND    PRES   REMARKS
#HORSE RIDGE DO N/A         35  30  82  E14     N/A    WCI 26
#KEYES SMT DOT  N/A         31  29  92  E12     N/A    WCI 22
#PAULINA SCHOOL N/A         37  29  72  SE12    N/A    WCI 29
#PINE MTN OBS   N/A         27  26  96  CALM    N/A
#PRAIRIE CITY   N/A         38  27  64  E10     29.36F
#SENECA         N/A         33  N/A N/A SW1     N/A
#SENECA 9NW     N/A         29  27  92  CALM    29.23F
$$

ORZ049-202210-
GRANDE RONDE VALLEY

CITY            SKY/WX      TMP DP  RH  WIND    PRES   REMARKS
LA GRANDE       MOCLDY      39  27  62  S24G32  29.18F WCI 28
#COVE           N/A         42  30  62  SE6     29.28F
#COVE 6NW       N/A         37  30  75  SE5     29.30F
#ELGIN 3N       N/A         36  28  72  CALM    29.26F
#ELGIN 1E       N/A         36  31  82  N3      N/A
#IMBLER SCHOOL  N/A         35  29  78  SE8     29.25F
#ISLAND CITY 4N N/A         42  40  93  CALM    29.10F
#LADD CYN DOT   N/A         38  28  67  S39     N/A    WCI 24
#UNION 1S       N/A         38  31  76  S17G26  29.30F WCI 29
$$

ORZ050-202210-
WALLOWA COUNTY

CITY            SKY/WX      TMP DP  RH  WIND    PRES   REMARKS
JOSEPH AIRPORT  PTCLDY      28  28  100 CALM    29.21F
#IMNAHA SCHOOL  N/A         34  33  96  N5      29.31F
#IMNAHA 10S     N/A         42  28  57  SW9     29.29F
#JOSEPH 3N      N/A         24  19  81  CALM    29.32F
#JOSEPH 3W      N/A         32  26  78  CALM    29.13F
#LOSTINE        N/A         28  26  92  CALM    29.14F
#LOSTINE 3SE    N/A         28  27  96  CALM    29.27F
#MT HOWARD 8000 N/A         21  18  88  S7G26   29.06R
#PROMISE 1S     N/A         35  30  82  CALM    29.39F
#WALLOWA SCHOOL N/A         28  26  92  CALM    29.27F



$$



USA.gov is the U.S. government's official web portal to all federal, state and local government web resources and services.